RH
28 30 32 27 26 24 24 24 24 20 18 20 17 18 16 16 16 16 15 16 18 19 16 17 18 30 63 87 92 93 86 79 82 96 94 95 97 97 98 98 94 90 90 89
30 34 26 24 24 26 27 29 26 21 18 18 21 20 19 17 16 15 14 16 19 20 17 17 20 32 56 74 86 92 84 82 86 81 97 96 97 96 95 96 94 96 95 94
32 25 23 24 27 28 28 29 27 24 21 24 23 25 21 17 18 17 18 19 19 20 20 19 19 32 55 72 84 85 77 76 73 69 90 91 88 89 94 93 93 89 84 88
28 23 23 26 26 26 33 25 22 25 27 28 25 34 27 22 21 19 17 18 19 21 21 20 21 36 52 57 58 62 66 71 76 79 81 79 81 84 93 90 93 91 84 84
29 30 28 29 25 22 25 23 26 25 28 34 31 33 28 26 19 19 24 22 26 37 35 26 31 42 60 61 69 75 75 82 87 83 78 81 85 90 95 95 88 90 90 90
28 26 26 25 23 26 26 26 31 38 38 41 31 31 37 25 27 38 37 40 43 48 49 52 58 61 66 70 70 73 75 78 79 78 78 75 73 82 88 91 91 93 94 92
34 31 26 25 32 38 32 36 45 47 46 45 45 49 43 37 47 47 43 44 42 44 44 47 53 56 59 61 62 62 63 65 66 65 63 63 67 82 86 88 91 90 94 94
42 49 40 35 41 48 50 42 49 50 56 48 54 51 44 51 52 45 42 46 43 44 46 43 44 49 52 56 56 53 60 62 64 62 60 63 75 78 80 87 93 93 93 92
44 44 35 36 34 35 50 65 53 67 82 83 64 51 45 57 57 57 56 52 57 54 47 43 44 46 48 51 52 52 52 52 61 60 59 61 70 75 74 79 86 88 91 84
57 57 53 44 36 38 45 50 67 82 84 86 75 66 55 66 64 58 56 61 58 58 59 43 39 40 36 45 45 47 48 44 46 57 59 59 64 67 67 76 80 85 86 90
67 64 60 52 56 62 59 62 67 77 88 94 94 76 55 68 66 59 53 46 45 48 48 47 42 37 40 38 37 37 37 41 47 57 64 61 61 63 67 71 70 76 84 88
70 78 82 69 54 52 56 75 80 94 86 95 97 90 58 62 55 54 47 46 50 47 48 48 40 38 42 48 44 47 50 49 52 54 59 69 67 68 72 72 72 75 82 83
61 80 76 47 47 54 66 77 87 91 95 95 98 84 63 51 45 46 48 47 46 52 51 51 53 49 48 48 48 47 49 52 55 54 56 59 60 62 64 73 77 75 79 82
60 80 68 67 47 77 81 71 65 81 98 94 91 80 62 54 50 49 49 58 56 51 47 50 52 54 52 49 49 48 48 52 55 56 58 59 60 61 64 66 70 75 75 80
61 73 81 74 69 71 71 69 66 76 75 86 70 62 52 54 53 60 56 51 47 45 44 47 49 52 53 53 53 52 52 52 58 60 61 63 63 63 64 67 69 73 81 80
80 82 85 87 71 72 74 64 64 60 58 59 58 60 57 61 52 54 53 49 48 47 44 45 48 48 48 50 49 46 49 53 62 67 62 58 62 63 67 71 73 74 73 77
82 91 92 85 75 74 78 65 56 52 57 65 81 73 78 69 60 65 64 51 45 47 48 50 51 51 51 53 47 53 53 65 72 75 69 65 65 64 62 61 61 66 69 68
90 87 92 90 81 92 54 48 61 65 82 87 81 77 74 72 66 62 50 56 54 53 52 54 56 57 57 57 62 67 78 81 77 74 68 64 64 63 61 62 62 60 57 55
81 90 96 95 96 72 57 80 78 77 74 82 82 74 62 55 61 59 54 58 59 59 58 58 57 58 60 63 73 77 72 66 66 66 63 62 63 65 63 66 69 64 60 55
79 78 93 100 98 94 72 79 74 78 94 78 76 68 56 66 85 75 56 57 60 58 59 60 60 61 68 70 70 78 71 72 75 68 65 67 66 69 74 73 75 69 65 70
96 99 96 97 99 90 72 66 75 89 80 81 77 76 71 74 73 62 64 67 65 65 65 62 64 70 72 70 74 72 69 73 68 68 69 72 70 71 74 76 75 67 68 61
92 94 95 98 99 97 75 72 81 77 84 82 83 75 66 66 64 66 66 69 68 69 62 62 80 73 64 62 68 77 78 71 71 77 83 80 78 76 78 82 75 69 71 82
93 90 94 93 92 88 80 87 84 85 80 72 71 63 63 69 68 68 73 72 72 67 70 78 73 71 66 66 73 83 77 78 79 81 83 86 86 82 82 91 83 75 67 71
80 90 94 92 84 84 74 75 76 70 66 56 65 64 74 72 72 75 73 74 74 77 80 73 78 75 74 71 73 81 89 85 85 89 86 88 95 98 97 95 87 89 82 75
76 73 82 91 77 75 71 78 70 66 68 71 64 70 71 73 72 74 77 81 84 80 73 73 78 81 80 76 83 90 85 86 92 94 95 97 95 94 94 97 97 97 92 94
76 77 93 89 73 79 74 60 65 74 70 69 73 68 67 72 76 78 88 88 82 77 73 77 79 83 82 84 89 87 82 87 98 98 95 96 96 95 95 97 95 95 96 94
Wind_Speed
4 4 6 8 6 4 2 3 5 6 4 2 8 7 9 9 5 9 8 8 10 10 12 9 6 4 6 5 7 9 9 10 8 4 3 2 4 2 3 4 6 8 7 9
5 6 7 4 3 4 4 3 7 9 6 7 7 9 9 6 5 7 8 8 10 7 7 8 7 7 9 11 12 8 9 7 5 4 4 4 4 3 3 3 3 4 5 6
6 6 5 3 3 3 5 4 6 8 6 2 3 6 5 6 5 7 4 5 6 8 9 10 8 8 6 9 9 10 10 9 6 5 2 3 4 4 4 4 3 3 4 1
5 6 4 4 6 7 7 8 14 8 2 4 3 6 6 5 8 5 9 9 9 9 9 11 9 8 10 7 7 7 6 6 3 5 3 3 3 3 1 2 1 3 4 5
6 2 4 3 6 6 9 4 8 7 5 3 2 2 9 4 7 7 10 10 11 10 9 9 9 8 3 7 7 6 6 5 3 5 6 5 5 3 3 2 2 0 2 4
5 2 2 5 1 2 4 3 8 6 4 0 4 5 5 4 3 6 6 8 9 4 7 9 8 7 6 6 8 8 9 6 7 7 7 8 8 5 4 2 2 2 2 1
3 3 3 2 3 6 7 6 3 3 3 6 1 1 9 3 4 4 4 9 9 9 9 11 11 9 8 7 7 7 8 6 6 6 6 6 7 7 7 5 3 2 0 1
4 2 1 2 4 4 2 6 7 7 4 4 4 5 3 4 5 6 11 7 9 10 9 8 7 8 6 5 3 4 4 4 4 5 6 5 7 5 5 6 4 4 4 4
4 3 1 6 1 3 2 3 4 6 2 3 4 6 1 5 8 8 8 9 9 9 9 9 8 4 5 3 1 1 1 3 5 6 4 6 4 4 4 6 5 4 4 3
2 2 2 2 2 6 5 6 3 3 4 4 4 4 6 2 5 7 8 6 7 7 6 7 7 6 6 1 3 3 5 7 7 8 6 5 6 7 6 5 7 7 6 4
4 4 4 1 3 2 6 4 5 4 4 6 1 6 4 5 2 5 6 7 8 8 10 4 4 3 4 3 5 7 8 7 7 6 5 7 7 8 7 7 7 7 6 7
2 4 0 3 6 4 3 3 4 6 4 1 1 7 4 5 4 3 8 9 7 8 9 6 3 2 4 6 3 5 5 6 6 6 5 5 6 7 7 7 6 6 8 6
4 2 2 7 5 5 6 2 4 4 3 6 5 5 6 9 14 9 12 11 7 4 3 4 6 6 5 6 6 6 6 6 5 6 6 6 7 7 7 7 7 6 7 7
7 3 6 6 4 3 3 3 4 5 4 4 6 8 8 12 16 16 14 5 6 7 5 3 4 4 5 5 5 6 7 6 6 6 6 6 7 6 6 7 7 7 7 7
5 4 3 4 4 3 5 10 6 8 7 9 3 14 11 8 9 6 5 5 5 5 3 2 3 5 5 6 6 7 7 7 7 7 7 8 8 8 8 8 7 7 7 7
4 3 2 3 5 5 8 10 9 11 12 14 10 15 5 0 5 4 5 5 6 7 7 7 7 7 7 7 8 10 9 9 7 7 10 10 9 9 10 9 8 8 9 9
4 6 3 4 3 7 7 6 8 5 6 6 7 7 0 2 5 3 1 4 5 7 7 7 7 7 7 8 9 10 11 8 7 7 9 10 10 11 11 10 11 11 10 10
6 6 4 2 2 3 6 4 6 4 1 1 2 1 2 2 4 6 6 2 5 6 7 8 7 7 8 7 7 8 7 7 9 11 13 13 14 15 15 16 16 16 14 16
5 5 2 3 3 7 6 0 1 1 4 5 4 4 5 5 6 5 3 3 5 6 7 8 8 8 8 8 8 9 12 14 15 16 16 16 14 18 19 16 14 18 18 18
4 3 4 3 3 6 4 2 2 1 6 5 2 4 4 3 4 5 5 6 8 9 8 9 9 8 8 10 8 10 16 16 15 16 16 13 17 16 13 15 17 12 14 14
3 1 7 5 5 6 4 3 1 4 7 3 2 5 5 4 6 5 7 8 7 8 8 8 8 7 9 11 11 15 16 16 15 17 18 14 15 17 16 15 14 17 15 15
6 5 3 2 4 7 6 6 2 5 3 4 4 6 7 7 7 7 8 8 8 9 9 8 7 11 13 14 13 16 15 15 18 17 15 17 16 13 12 15 14 14 14 14
1 6 6 8 6 2 3 5 7 5 4 4 4 6 6 5 6 8 7 8 8 9 7 8 11 16 15 13 13 15 17 17 17 17 17 15 15 14 13 14 14 11 12 11
2 3 3 1 4 7 8 7 5 5 7 6 5 4 2 6 7 8 8 8 7 7 10 12 14 16 17 14 13 16 17 16 16 17 17 14 13 13 12 11 10 10 9 9
5 2 2 5 6 5 6 5 6 8 6 6 3 2 4 6 9 7 8 7 8 10 12 13 14 15 18 16 16 14 16 15 15 15 14 14 12 13 12 11 10 9 9 10
4 6 5 7 8 5 7 6 6 6 5 3 2 6 6 5 8 7 6 6 9 12 14 14 15 17 17 17 16 15 15 13 13 15 12 11 11 10 10 9 10 15 20 19
Wind_Direction
170 118 197 213 190 174 181 187 250 261 246 275 256 247 279 292 335 291 251 245 257 257 260 249 233 179 150 164 183 183 170 189 161 157 180 182 190 159 198 180 202 211 209 214
40 225 222 209 176 191 215 249 269 289 261 154 273 258 258 276 282 249 237 253 246 245 257 263 229 187 197 182 194 179 199 174 164 155 168 168 168 184 146 142 150 177 203 206
152 242 145 177 263 250 245 198 251 221 305 244 303 310 295 295 306 335 311 258 265 250 272 286 263 212 173 176 193 188 183 178 187 173 95 68 59 46 53 31 25 352 352 340
205 274 198 183 240 170 260 209 231 234 174 243 91 275 299 299 315 306 305 305 281 259 247 249 253 192 194 197 160 164 160 161 161 149 100 92 113 118 160 112 344 338 340 331
230 102 100 177 219 168 230 302 204 205 183 126 318 81 268 285 307 314 309 309 308 305 289 277 227 201 173 141 134 120 123 113 107 110 117 115 99 113 146 136 139 268 322 324
217 249 184 214 303 28 294 86 36 49 86 183 230 152 273 260 261 299 321 353 338 17 51 47 38 61 63 95 97 108 118 120 126 127 133 127 131 137 112 95 43 2 341 318
318 238 267 197 156 356 69 57 346 335 346 219 199 78 241 319 329 275 22 3 359 343 68 79 75 69 59 53 85 107 118 133 149 137 140 148 149 150 151 154 159 159 151 326
168 157 168 356 128 169 101 144 160 204 206 258 293 237 243 55 4 40 63 39 26 19 12 36 69 103 108 113 104 107 146 161 188 187 191 186 177 169 161 162 175 185 186 188
166 128 23 40 70 148 177 77 174 103 29 56 262 299 13 41 42 44 42 39 27 16 9 26 18 52 121 105 80 174 194 263 250 252 250 235 222 194 192 191 180 190 200 197
176 120 39 328 11 35 91 161 74 13 173 233 288 271 237 60 28 30 16 27 356 343 1 31 20 355 345 133 176 225 234 232 240 238 235 241 235 222 221 198 205 209 210 205
106 111 271 26 61 97 357 15 52 110 135 175 213 252 249 124 83 15 338 340 327 331 304 336 286 207 249 346 354 333 322 309 309 308 283 232 233 227 216 213 222 214 208 205
8 117 142 258 309 233 161 134 111 124 240 212 165 264 176 159 243 302 314 287 275 276 260 282 338 267 105 88 80 48 13 11 356 330 323 310 325 337 319 294 261 229 220 220
173 47 38 352 355 14 75 61 92 100 87 206 173 251 195 310 318 315 304 274 275 261 312 49 60 46 29 19 7 351 332 336 337 346 352 341 330 325 309 301 296 289 277 260
93 104 153 193 198 171 260 251 198 156 172 225 219 268 296 287 290 300 291 336 25 66 60 43 3 355 335 320 310 307 306 289 287 277 269 268 271 269 267 269 270 267 259 247
96 128 168 239 240 218 241 272 271 204 214 221 234 262 267 244 257 302 356 70 47 40 22 297 272 286 285 286 289 282 277 280 269 268 269 263 263 257 255 254 251 255 257 255
8 146 108 281 276 286 280 272 262 264 266 260 260 271 224 66 88 61 37 18 1 339 332 333 335 335 327 316 307 301 298 291 277 272 269 272 266 260 253 250 245 242 242 242
113 126 99 275 356 338 304 246 227 231 226 213 225 238 245 327 13 349 325 321 321 324 326 325 306 288 279 283 301 308 306 306 293 288 295 293 289 284 279 268 263 255 245 241
136 129 137 222 35 238 248 282 262 224 178 239 237 154 280 290 278 265 216 263 309 291 285 287 289 288 282 282 293 283 269 266 277 281 282 282 281 281 280 276 273 273 273 267
148 141 162 169 196 300 301 161 112 114 279 204 215 246 271 304 335 300 201 222 248 268 280 277 276 278 284 285 270 276 289 295 291 288 292 291 291 293 281 278 284 281 271 264
114 102 125 155 210 240 244 263 190 117 273 195 214 273 252 351 312 263 285 322 293 279 273 278 276 272 272 281 284 287 294 293 288 289 292 291 294 283 292 292 286 288 292 294
105 64 205 207 244 275 248 284 107 121 247 225 220 263 277 233 213 238 287 278 259 261 272 271 274 281 280 287 286 290 294 289 297 299 290 287 288 282 277 277 273 272 271 266
166 172 195 211 246 251 12 328 217 236 265 248 262 258 259 253 273 273 271 272 280 284 287 290 295 296 298 300 300 293 292 303 299 294 290 291 286 282 279 276 274 275 269 266
226 180 182 182 220 212 222 223 271 243 238 267 253 271 258 273 271 288 285 295 283 286 293 295 296 300 302 306 296 298 298 301 299 294 291 290 285 279 278 274 271 268 267 266
295 177 221 123 261 227 256 248 240 254 249 269 278 266 277 278 285 286 291 291 293 302 299 303 301 302 302 302 306 303 300 298 296 293 291 286 283 273 265 261 263 261 261 252
214 4 217 258 275 260 273 243 258 277 286 309 319 332 300 293 290 284 290 298 300 297 304 309 306 302 303 308 307 300 298 298 293 291 288 283 275 272 272 261 256 255 249 248
194 205 170 238 232 216 242 251 262 285 296 40 357 315 301 287 287 285 291 285 293 301 310 310 309 307 307 309 305 302 302 299 293 293 291 285 285 281 275 269 271 242 246 253